MDT,Max TemperatureF,Mean TemperatureF,Min TemperatureF,Max Dew PointF,MeanDew PointF,Min DewpointF,Max Humidity, Mean Humidity, Min Humidity, Max Sea Level PressureIn, Mean Sea Level PressureIn, Min Sea Level PressureIn, Max VisibilityMiles, Mean VisibilityMiles, Min VisibilityMiles, Max Wind SpeedMPH, Mean Wind SpeedMPH, Max Gust SpeedMPH,PrecipitationIn, CloudCover, Events, WindDirDegrees
2013-9-1,88,70,52,48,44,38,59,42,24,30.06,30.01,29.94,10,10,10,18,10,24,0.00,0,,132
2013-9-2,92,76,59,63,52,46,87,55,23,30.09,29.95,29.85,10,10,5,29,10,39,0.05,2,Rain-Thunderstorm,143
2013-9-3,92,74,56,59,53,47,93,58,23,29.97,29.93,29.89,10,10,10,22,7,28,0.02,0,,344
2013-9-4,96,77,57,52,49,43,72,44,16,30.06,30.00,29.95,10,10,10,15,6,18,0.00,0,,314
2013-9-5,96,77,58,52,49,44,72,46,19,30.15,29.99,29.91,10,10,10,20,5,31,0.00,0,Thunderstorm,161
2013-9-6,93,75,57,51,46,42,67,43,18,30.02,29.95,29.91,10,10,10,20,6,24,T,1,Rain,306
2013-9-7,94,76,57,52,46,43,60,39,17,30.20,29.98,29.88,10,10,10,28,5,33,T,2,Rain-Thunderstorm,270
2013-9-8,86,73,60,61,55,50,93,62,31,30.00,29.87,29.76,10,10,2,31,8,38,0.02,3,Rain-Thunderstorm,312
2013-9-9,72,65,58,57,55,52,90,72,53,30.05,29.88,29.77,10,10,10,16,6,21,0.02,3,,358
2013-9-10,68,61,54,55,49,44,93,68,42,30.12,30.07,29.98,10,10,9,9,4,12,0.00,5,Rain,74
2013-9-11,68,62,55,54,52,48,86,72,58,30.24,30.18,30.12,10,10,10,15,8,17,T,6,Rain,141
2013-9-12,70,61,52,54,52,50,93,75,57,30.36,30.23,30.12,10,10,10,16,7,21,T,6,Rain,151
2013-9-13,61,59,57,59,57,53,100,90,80,30.21,29.99,29.84,10,8,1,23,12,28,0.01,6,Rain,145
2013-9-14,77,64,51,58,55,50,100,71,41,29.98,29.90,29.81,10,5,0,21,7,30,0.01,7,Fog-Rain,323
2013-9-15,62,58,54,56,51,48,89,75,60,30.30,30.17,29.99,10,10,10,24,13,30,0.00,8,,126
2013-9-16,82,67,52,55,51,46,96,63,30,30.24,30.01,29.83,10,10,10,25,14,31,0.00,3,,145
2013-9-17,89,69,48,54,45,37,93,55,17,29.87,29.75,29.61,10,10,10,22,7,28,0.00,0,Thunderstorm,217
2013-9-18,86,67,48,50,41,28,83,49,15,29.86,29.68,29.55,10,10,7,31,12,38,T,1,Rain-Thunderstorm,277
2013-9-19,67,53,39,39,35,29,86,55,24,30.18,30.06,29.89,10,10,10,20,6,26,0.00,0,,332
2013-9-20,74,55,35,35,31,25,89,53,17,30.17,30.05,29.88,10,10,10,15,5,18,0.00,0,,124
2013-9-21,87,62,37,36,30,20,82,46,10,29.88,29.76,29.61,10,10,10,26,7,32,0.00,0,,227
2013-9-22,83,67,51,50,40,30,72,45,17,29.72,29.56,29.47,10,9,2,43,9,51,T,4,Rain,174
2013-9-23,68,55,41,52,44,33,93,61,29,29.96,29.75,29.47,10,10,8,28,10,35,T,5,Rain,334
2013-9-24,78,56,34,41,35,30,92,55,18,30.05,29.89,29.68,10,10,10,20,8,30,0.00,0,,151
2013-9-25,79,63,46,41,37,28,71,44,16,29.67,29.53,29.35,10,10,10,37,12,44,0.00,0,,148
2013-9-26,66,52,37,41,37,31,85,58,30,29.88,29.72,29.61,10,10,4,25,9,31,T,3,Rain,14
2013-9-27,42,37,32,37,34,31,100,91,82,30.06,29.94,29.81,10,6,0,16,10,22,T,7,Fog-Rain-Snow,313
2013-9-28,63,47,30,35,31,28,92,62,32,30.09,30.04,29.96,10,10,10,31,13,39,0.00,0,,283
2013-9-29,74,61,47,33,29,25,50,34,17,29.94,29.79,29.68,10,10,10,38,18,47,0.00,0,,263
2013-9-30,81,61,41,43,32,28,82,50,18,29.85,29.67,29.57,10,10,10,36,14,47,0.00,1,,254